Dewpoint
35 36 37 36 36 37 37 37 37 38 40 40 40 40 42 44 44 44 42 43 44 46 47 48 50 51 52 53 53 54 56 58
34 35 36 35 35 35 35 34 37 37 36 35 35 35 37 41 41 41 42 41 43 42 44 46 48 49 50 52 52 51 50 51
33 34 35 34 33 33 33 34 35 36 37 38 36 38 37 41 41 39 40 40 42 43 44 44 46 48 49 50 51 51 51 51
32 34 34 32 31 31 32 33 33 35 36 36 36 37 37 37 38 37 38 39 42 43 42 41 45 46 46 49 50 51 50 51
32 34 32 30 30 32 32 31 33 34 35 35 35 35 34 36 38 37 37 38 41 43 42 41 44 45 45 47 51 50 50 49
32 32 30 30 30 31 31 31 32 34 36 36 35 33 35 36 36 38 38 39 40 41 41 42 42 44 45 48 49 49 50 50
31 29 29 29 30 30 28 30 34 36 36 35 34 34 35 37 38 39 39 39 40 41 41 41 42 45 47 47 47 48 48 49
28 27 26 26 27 27 29 31 35 35 33 33 34 36 38 39 39 40 40 40 41 41 41 42 45 44 44 45 44 44 45 46
26 25 24 24 24 26 31 34 35 34 33 34 36 38 39 40 40 40 41 41 42 43 44 44 41 41 41 42 42 43 43 42
24 25 24 24 24 26 32 35 35 33 33 34 35 37 39 40 41 42 42 43 42 40 40 40 40 40 40 40 40 40 41 42
25 25 24 23 25 32 35 35 33 33 33 34 35 36 39 40 41 41 41 40 40 39 39 39 38 39 39 40 40 41 40 41
24 23 23 22 29 34 35 35 34 33 33 34 34 35 37 40 40 41 41 40 40 38 37 38 37 37 37 37 36 36 36 35
24 22 21 24 30 32 34 35 34 34 34 34 33 34 36 38 38 40 40 41 40 38 37 37 36 35 36 36 35 35 34 33
23 23 20 23 28 30 33 34 34 34 34 34 33 33 34 36 38 38 39 39 38 38 37 35 33 33 33 34 34 34 34 33
23 21 22 23 28 30 32 34 35 34 34 34 33 32 33 35 36 35 36 37 37 36 35 34 33 34 32 34 33 32 32 32
41 31 23 24 28 31 32 32 33 35 34 34 33 33 33 35 34 34 34 34 34 34 34 33 32 31 30 33 34 33 31 31
36 26 23 26 29 31 32 32 33 34 34 33 33 33 33 33 32 32 32 33 31 31 31 32 30 30 31 32 34 34 31 30
21 24 25 27 30 31 31 32 32 33 34 33 32 33 32 31 32 32 31 30 30 30 29 31 31 30 29 32 35 35 32 31
20 23 27 29 29 30 31 32 32 32 32 32 32 32 31 31 31 31 30 30 29 29 29 30 30 28 30 33 34 34 33 30
Wind_Speed
14 17 16 17 19 20 21 17 15 12 12 12 13 13 13 15 14 15 16 15 15 14 13 15 14 12 13 16 17 16 15 20
15 15 16 17 17 19 18 17 11 11 12 11 11 11 11 11 12 13 15 16 17 17 14 13 13 13 16 16 16 15 14 14
15 14 14 15 15 15 15 14 11 10 8 4 4 4 3 3 4 7 8 10 11 12 14 14 14 14 15 15 17 16 7 8
17 16 16 15 14 12 12 11 10 8 8 6 5 5 3 3 8 8 7 9 9 9 11 16 16 13 14 14 15 16 16 10
15 17 15 14 12 10 10 8 8 8 8 10 9 5 5 4 8 8 12 10 11 8 9 13 13 12 15 14 11 11 9 14
20 18 16 12 11 12 10 8 8 7 9 9 8 9 8 9 13 17 15 14 12 11 12 12 12 11 13 14 13 12 10 10
18 15 13 11 9 9 8 10 9 8 7 6 7 10 12 13 14 13 13 14 14 14 14 13 12 12 12 11 14 12 14 13
20 19 15 12 12 10 7 9 7 4 6 8 9 10 9 9 9 9 13 13 13 15 15 13 11 12 11 10 11 12 13 13
21 19 17 16 13 8 9 11 9 4 2 5 8 11 11 10 10 11 10 12 14 16 14 12 14 14 13 12 11 10 10 14
20 17 16 14 12 12 13 12 8 4 4 8 9 8 6 7 10 9 9 8 7 11 12 13 14 14 13 13 12 14 13 12
9 11 11 10 10 10 13 11 7 3 3 4 6 8 8 8 9 11 10 7 6 8 9 11 12 14 15 13 12 11 12 11
17 15 13 12 12 13 11 10 6 1 3 5 8 9 9 9 10 9 10 9 4 5 8 10 12 13 15 11 12 11 13 14
17 17 13 10 11 12 12 7 2 2 3 4 7 9 9 9 10 9 9 9 3 5 7 9 11 13 12 12 13 13 12 13
13 11 10 13 13 12 9 6 7 7 5 7 9 11 11 11 10 9 9 10 7 6 8 10 13 13 14 13 12 13 14 13
7 9 16 14 14 12 9 10 10 8 8 9 11 12 12 11 10 9 11 9 9 6 8 10 11 12 14 12 15 16 16 15
22 17 16 15 11 11 11 13 12 13 13 14 16 14 12 11 11 8 10 11 8 5 7 8 9 11 10 15 14 14 16 15
18 17 15 13 14 17 18 19 19 16 17 18 15 13 12 11 11 10 9 10 9 8 8 9 9 9 13 16 15 13 14 14
10 13 13 15 17 19 19 21 19 17 18 19 16 14 14 13 12 10 10 10 9 8 9 8 9 8 12 14 14 12 13 13
13 14 15 15 18 20 22 20 20 20 21 21 19 17 17 15 13 13 11 10 9 8 9 9 11 8 12 13 13 12 12 13
Wind_Direction
145 133 122 112 104 102 90 79 75 74 76 70 60 56 46 43 35 31 24 12 5 359 346 340 337 331 324 318 318 317 314 306
146 130 125 112 104 102 98 91 77 69 61 50 32 35 29 40 29 18 13 4 356 351 348 344 341 335 320 310 303 306 317 326
148 138 125 112 107 103 99 97 86 75 82 90 73 75 12 75 4 0 356 345 340 340 343 341 333 337 332 328 320 311 302 330
156 145 137 132 116 114 103 93 84 72 68 62 51 43 342 328 348 335 329 313 310 314 332 331 323 328 322 316 317 315 309 316
156 147 144 140 131 124 119 111 88 69 61 61 55 35 357 312 326 323 325 315 303 292 309 312 310 311 309 302 300 301 316 316
162 162 158 155 150 152 147 120 102 90 77 64 46 20 357 344 350 346 341 334 322 310 309 314 309 304 297 299 313 309 301 293
164 164 160 159 161 161 157 128 105 87 80 73 43 17 6 1 356 354 339 329 327 326 323 315 311 307 301 316 315 317 310 305
168 170 175 173 177 188 140 121 122 95 58 36 22 15 9 1 345 337 344 341 340 330 328 326 340 340 337 335 329 321 318 312
179 183 186 184 183 170 162 158 166 156 79 26 21 17 12 360 352 341 340 336 322 317 326 341 339 338 338 338 330 312 309 310
190 191 188 185 182 186 173 173 178 156 51 21 10 355 345 339 339 325 305 296 324 339 341 341 340 335 333 338 330 327 326 320
213 213 212 194 194 175 175 181 180 153 63 14 351 336 332 326 318 306 298 301 330 336 356 351 339 342 343 338 335 332 331 328
202 211 219 212 186 184 180 186 187 189 12 355 335 324 321 306 295 291 309 290 339 358 351 341 349 345 339 343 345 345 343 339
208 212 207 207 198 197 202 199 218 297 287 283 305 316 301 291 293 298 314 314 347 327 331 329 335 327 325 318 336 334 332 333
216 224 211 215 213 214 217 219 235 243 255 285 302 302 289 283 284 299 308 299 310 319 322 328 322 320 317 310 313 317 320 320
230 237 231 223 221 222 222 235 239 253 258 265 268 269 265 264 277 296 305 304 312 313 326 329 318 318 316 307 315 317 318 316
242 233 231 225 230 222 231 245 247 242 245 252 254 256 260 263 269 279 295 297 296 304 316 311 312 314 317 321 313 310 314 316
241 238 225 230 221 223 229 238 242 231 236 247 257 257 259 259 261 270 279 283 290 292 303 300 312 312 314 316 320 306 309 314
225 233 232 227 225 230 239 243 244 237 239 247 252 251 250 253 253 249 253 268 277 288 297 298 299 305 311 322 319 305 300 302
307 284 261 250 249 249 248 248 246 241 241 243 244 241 244 247 245 242 246 254 269 288 296 285 287 292 317 318 320 307 301 311